www.pogodaiklimat.ru
ПОГОДА в Фунафути
Время
(UTC), дата
00 24.10
03 24.10
06 24.10
09 24.10
15 24.10
18 24.10
21 24.10
00 25.10
03 25.10
09 25.10
12 25.10
15 25.10
18 25.10
00 26.10
03 26.10
06 26.10
09 26.10
12 26.10
15 26.10
18 26.10
21 26.10
00 27.10
03 27.10
06 27.10
09 27.10
12 27.10
15 27.10
18 27.10
21 27.10
00 28.10
03 28.10
06 28.10
09 28.10
12 28.10
15 28.10
18 28.10
21 28.10
00 29.10
03 29.10
06 29.10
09 29.10
12 29.10
15 29.10
18 29.10
21 29.10
00 30.10
03 30.10
06 30.10
09 30.10
12 30.10
15 30.10
18 30.10
Ветер
(напр.,м/с)
Видим. Явления Облачность Т
(С)
Тd
(С)
f
(%)
Тe
(С)
Тes
(С)
Комфортность P
(гПа)
Po
(гПа)
Тmin
(С)
Tmax
(С)
R
(мм)
R24
(мм)
S
(см)
СЗ 4 50 км 6/0 600 м
[Ac cast Ci fib]
+30.7 +23.2 64 +41 +50 опасность
перегрева
1009.7 1009.5 +26.6
нст 1 50 км 5/3 600 м
[Cu Sc As op]
+31.0 +23.1 63 +41 +50 опасность
перегрева
1008.0 1007.8
нст 1 50 км 8/0 300 м
[Ac cast Ci fib]
+29.3 +22.9 68 +39 +39 очень
душно
1008.9 1008.7
нст 1 50 км 6/0 600 м
[Ac cast Ci fib]
+28.4 +23.5 75 +39 +39 очень
душно
1010.7 1010.5
З 4 50 км 4/4 600 м
[Cu Sc As op]
+27.9 +23.3 76 +38 +38 очень
душно
1008.1 1007.9
СЗ 4 50 км 4/4 600 м
[Cb calv Ac cuf Ci fib]
+27.8 +22.7 74 +37 +37 очень
душно
1009.1 1008.9
нст 1 50 км 3/3 600 м
[Cu hum Ac cuf]
+31.0 +23.4 64 +42 +51 опасность
перегрева
1010.4 1010.2
СЗ 2 50 км {пыльная буря} 5/1 600 м
[Cu hum Ac cuf]
+31.3 +22.9 61 +41 +55 опасность
перегрева
1009.5 1009.3 +27.6
З 4 50 км 4/3 600 м
[Cu Sc As op]
+31.9 +25.7 70 +47 +52 опасность
перегрева
1007.4 1007.2
штиль 0 50 км 3/3 600 м
[Cu Sc As op]
+28.6 +23.4 73 +39 +39 очень
душно
1009.8 1009.6
З 2 50 км 3/3 600 м
[Cu Sc As op]
+28.0 +25.0 84 +40 +40 очень
душно
1009.2 1009.0
С 3 50 км 3/3 600 м
[Cu Sc As op]
+28.4 +23.5 75 +39 +39 очень
душно
1007.3 1007.1
С 3 50 км 6/6 300 м
[Cu med, cong Ac cast]
+28.5 +23.5 74 +39 +39 очень
душно
1008.7 1008.5
З 4 50 км 4/4 600 м
[Cu Sc As op]
+31.7 +23.1 60 +42 +52 опасность
перегрева
1008.2 1008.0 +28.2
З 5 50 км 4/0 600 м
[Ac cast Ci fib]
+32.0 +23.7 62 +43 +49 опасность
перегрева
1006.2 1006.0
ЮВ 4 20 км {ливн. дождь} 6/4 300 м
[Cb calv Ac cuf]
+28.5 +25.1 82 +41 +41 опасность
перегрева
1007.1 1006.9 0.9
Ю 4 50 км {ливн. дождь} 4/4 600 м
[Cu hum]
+28.2 +25.1 83 +41 +41 опасность
перегрева
1009.1 1008.9
нст 1 10 км {ливн. дождь} 3/3 300 м
[Cb cap As trans Cs]
+28.0 +24.9 83 +40 +40 очень
душно
1008.7 1008.5 +32.2 0.9
нст 1 20 км осадки на расстоянии {пыльная буря} 6/4 300 м
[Cu Sc As trans Cs]
+27.8 +25.2 86 1007.3 1007.1
штиль 0 20 км {ливн. дождь} 6/0 300 м
[Ac cast Ci fib]
+27.0 +25.3 90 +39 +39 очень
душно
1008.6 1008.4 4
Ю 5 50 км 8/8 300 м
[Cb calv Ac cuf Ci fib]
+27.9 +24.5 82 +39 +42 очень
душно
1010.2 1010.0
нст 1 50 км {гроза, дождь} 8/8 300 м
[Cu med, cong Ac cast]
+30.4 +25.4 75 +45 +56 опасность
перегрева
1007.9 1007.7 +26.3 9.6
Ю 2 10 км осадки на расстоянии 6/6 300 м
[Cb calv Ac cuf Ci fib]
+29.6 +24.5 74 +42 +48 опасность
перегрева
1006.8 1006.6
штиль 0 20 км {ливн. дождь} 10/10 300 м
[Cb calv Ac cuf Ci fib]
+28.4 +25.0 82 +41 +41 опасность
перегрева
1007.8 1007.6 2
штиль 0 50 км {ливн. дождь} 6/6 300 м
[Cb calv Ac cuf Ci fib]
+28.0 +25.2 85 +41 +41 опасность
перегрева
1009.6 1009.4
нст 1 50 км 6/3 540 м
[Cu med, cong Ac cuf]
+27.4 +25.0 87 +39 +39 очень
душно
1009.7 1009.5 +32.1
нст 1 50 км 6/5 600 м
[Cb calv Ac cuf]
+26.9 +24.9 89 +39 +39 очень
душно
1007.7 1007.5
штиль 0 20 км 6/6 300 м
[Cu med, cong Ac cast Ci fib]
+27.2 +24.2 84 +38 +38 очень
душно
1008.6 1008.4
Ю 4 50 км {ливн. дождь} 6/6 300 м
[Cb calv Ac cuf Ci fib]
+28.6 +24.9 80 +41 +45 опасность
перегрева
1010.5 1010.3
ЮВ 3 10 км {пыльная буря} 9/9 300 м
[Sc diur, vesp Ac cuf]
+28.3 +25.1 83 +41 +46 опасность
перегрева
1009.7 1009.5 +26.6 2.3
В 3 50 км 10/10 300 м
[Sc diur, vesp Ac cuf]
+29.5 +25.6 80 +44 +46 опасность
перегрева
1007.3 1007.1
Ю 5 20 км 9/9 300 м
[Sc diur, vesp Ac cuf]
+29.5 +24.7 75 +42 +42 опасность
перегрева
1007.9 1007.7
ЮВ 6 10 км 10/4 450 м
[Cb calv Ac cuf]
+28.0 +24.4 81 +39 +39 очень
душно
1010.3 1010.1
В 3 20 км {морось} 8/8 300 м
[Sc diur, vesp Ac cuf]
+26.9 +24.0 84 +37 +37 очень
душно
1010.2 1010.0 +31.9 0.9
штиль 0 50 км 8/8 300 м
[Sc diur, vesp Ac cuf]
+27.0 +23.8 83 +37 +37 очень
душно
1007.9 1007.7
В 2 20 км 8/8 300 м
[Cb calv Ac cuf Ci fib]
+27.0 +23.8 83 +37 +37 очень
душно
1009.0 1008.8 1
В 3 50 км 6/1 600 м
[Cu hum Cs]
+30.7 +25.1 72 +44 +52 опасность
перегрева
1010.4 1010.2
В 4 50 км 8/0 300 м
[Ac cast Ci fib]
+32.0 +25.0 67 +46 +55 опасность
перегрева
1008.8 1008.6 +25.6 2.2
нст 1 50 км 6/1 600 м
[Cu hum Cs]
+31.5 +24.9 68 +45 +56 опасность
перегрева
1006.3 1006.1
нст 1 50 км 5/0 600 м
[Ac cast Ci fib]
+29.5 +23.8 71 +40 +40 очень
душно
1007.4 1007.2
нст 1 20 км 9/8 300 м
[Cu med, cong Ac cast]
+28.5 +24.4 79 +40 +40 очень
душно
1009.2 1009.0
штиль 0 50 км 10/10 600 м
[Cu med, cong Ac cast Ci fib]
+28.5 +24.1 77 +40 +40 очень
душно
1009.1 1008.9 +32.5
нст 1 50 км 8/8 300 м
[Cu med, cong Ac cast]
+28.5 +24.1 77 +40 +40 очень
душно
1007.3 1007.1
ЮВ 3 50 км 8/8 300 м
[Cu med, cong Ac cast]
+28.4 +24.4 79 +40 +40 очень
душно
1008.3 1008.1
В 3 50 км 6/0 300 м
[Ac cast Ci fib]
+30.9 +25.3 72 +45 +51 опасность
перегрева
1010.2 1010.0
В 5 50 км {дождь} 4/4 300 м
[Cu Sc As trans Cs]
+32.5 +25.5 67 +47 +55 опасность
перегрева
1009.1 1008.9 +26.8 0.6
В 5 50 км 8/8 300 м
[Cu med, cong Ac cast]
+31.0 +25.0 70 +44 +47 опасность
перегрева
1007.3 1007.1
В 5 50 км 9/9 300 м
[Cb calv Ac cuf Ci fib]
+27.8 +24.5 82 +39 +39 очень
душно
1008.9 1008.7 0.0
В 2 50 км 8/0 300 м
[Ac cast Ci fib]
+27.5 +23.2 77 +37 +37 очень
душно
1010.8 1010.6
нст 1 50 км 8/8 300 м
[Cu med, cong Ac cast]
+27.5 +25.7 90 +41 +41 опасность
перегрева
1010.4 1010.2 +32.4
штиль 0 50 км 9/9 300 м
[Cu med, cong Ac cast]
+27.0 +23.1 79 +36 +36 очень
душно
1009.7 1009.5
нст 1 50 км 8/8 300 м
[Cu med, cong Ac cast]
+26.0 +24.6 92 +37 +37 очень
душно
1010.1 1009.9
Местоположение метеостанции Фунафути (Тувалу): широта -8.53 долгота 179.21 высота над уровнем моря 2 м.
В архиве по умолчанию представлена погода в Фунафути за последнюю неделю. Архивные данные за месяц целиком и за предыдущие месяцы, начиная с января 2011 года, Вы можете получить, выбрав интересующий диапазон дат из раскрывающегося списка и нажав кнопку "Найти!".
*Определитесь, кто Вы:
Внимание! Время в таблицах - всемирное. Для получения местного времени необходимо прибавить поправку, которая равна 12 ч.
Смотрите также архив погоды в соседних городах и на ближайших метеорологических станциях:
Партнеры нашего сайта:      
Пояснения к столбцам:
  • Ветер - указаны скорость ветра в м/с - средняя за 10 мин, порывы в срок и между сроками (в фигурных скобках) и направление, откуда дует ветер: С - северный,
  • СВ - северо-восточный, В - восточный, ЮВ - юго-восточный, Ю - южный, ЮЗ - юго-западный, З - западный, СЗ - северо-западный.
  • Видимость - горизонтальная дальность видимости в метрах или километрах. При видимости от 1 до 10 км при отсутствии осадков обычно наблюдается дымка, при ухудшении видимости до 1 км и менее - туман. В сухую погоду видимость может ухудшаться дымом, пылью или мглою.
  • Явления - указаны атмосферные явления, наблюдавшиеся в срок или в последний час перед сроком; фигурными скобками обозначены явления, наблюдавшиеся между сроками (за 1-3 часа до срока); квадратными скобками обозначены град или гололедные отложения с указанием их диаметра в мм.
  • Облачность - указаны через наклонную черту общая и нижняя облачность в баллах и высота нижней границы облаков в метрах; квадратными скобками обозначены формы облаков: Ci - перистые, Cs - перисто-слоистые, Cc - перисто-кучевые, Ac - высококучевые, As - высокослоистые, Sc - слоисто-кучевые, Ns - слоисто-дождевые, Cu - кучевые, Cb - кучево-дождевые. Подробнее классификацию облаков см. в Атласе облаков (PDF).
  • T - Температура воздуха - температура, измеренная на высоте 2 м над землей.
  • Td - Температура точки росы - температура, при понижении до которой содержащийся в воздухе водяной пар достигнет насыщения.
  • f - Относительная влажность воздуха - влажноcть воздуха, измеренная на высоте 2 м над землей.
  • Te - Эффективная температура - температура, которую ощущает одетый по сезону человек в тени. Характеристика душности погоды. При расчете учитывается влияние влажности воздуха и скорости ветра на теплоощущения человека.
  • Tes - Эффективная температура на солнце - температура, которую ощущает человек, с поправкой на солнечный нагрев. Характеристика знойности погоды. Зависит от высоты солнца над горизонтом, облачности и скорости ветра. Ночью, в пасмурную погоду, а также при ветре 12 м/с и более поправка равна нулю.
  • P - Атмосферное давление - приведенное к уровню моря атмосферное давление.
  • Po - Атмосферное давление - измеренное на уровне метеостанции атмосферное давление.
  • Tmin - Минимальная температура - минимум температуры воздуха на высоте 2 м над землей.
  • Tmax - Максимальная температура - максимум температуры воздуха на высоте 2 м над землей.
  • R - Количество осадков - Количество выпавших осадков за период времени, мм. При наведении курсора мыши на число - период времени, за который выпало указанное количество осадков.
  • R24 - Количество осадков - Количество выпавших осадков за 24 часа, мм.
  • S - Снежный покров - Высота снежного покрова, см. При наведении курсора мыши на число - состояние снежного покрова и степень покрытия местности в баллах.